| time (UTC) | temp F | wind direction | speed MPH | gust MPH | rain 1hr in | rain 24hr in | rain mn in | humidity % | barometer mb |
| 20260508023630 | 57 | 247 | 0.0 | 0.0 | 0.00 | 0.02 | 0.00 | 82 | 1011.5 |
| 20260508023130 | 57 | 247 | 0.0 | 0.0 | 0.00 | 0.02 | 0.00 | 82 | 1011.4 |
| 20260508022629 | 57 | 247 | 0.0 | 2.0 | 0.00 | 0.02 | 0.00 | 82 | 1011.5 |
| 20260508022129 | 57 | 292 | 0.0 | 2.0 | 0.00 | 0.02 | 0.00 | 82 | 1011.5 |
| 20260508021629 | 57 | 292 | 0.0 | 0.0 | 0.00 | 0.02 | 0.00 | 81 | 1011.6 |
| 20260508021128 | 57 | 292 | 0.0 | 0.0 | 0.00 | 0.02 | 0.00 | 81 | 1011.5 |
| 20260508020628 | 57 | 292 | 0.0 | 0.0 | 0.00 | 0.02 | 0.00 | 81 | 1011.6 |
| 20260508020128 | 57 | 292 | 0.0 | 0.0 | 0.02 | 0.02 | 0.00 | 81 | 1011.7 |
| 20260508015628 | 57 | 292 | 0.0 | 0.0 | 0.02 | 0.02 | 0.00 | 81 | 1011.8 |
| 20260508015127 | 57 | 292 | 0.0 | 0.0 | 0.02 | 0.02 | 0.00 | 81 | 1011.7 |
| 20260508014627 | 57 | 292 | 0.0 | 2.0 | 0.02 | 0.02 | 0.00 | 81 | 1011.8 |
| 20260508014127 | 57 | 292 | 0.0 | 0.0 | 0.02 | 0.02 | 0.00 | 81 | 1011.7 |
| 20260508013626 | 57 | 292 | 0.0 | 0.0 | 0.02 | 0.02 | 0.00 | 81 | 1011.8 |
| 20260508013126 | 57 | 292 | 0.0 | 0.0 | 0.02 | 0.02 | 0.00 | 80 | 1011.7 |
| 20260508012626 | 57 | 292 | 0.0 | 0.0 | 0.02 | 0.02 | 0.00 | 79 | 1011.7 |
| 20260508012125 | 57 | 292 | 0.0 | 1.0 | 0.02 | 0.02 | 0.00 | 79 | 1011.7 |
| 20260508011625 | 58 | 292 | 0.0 | 0.0 | 0.02 | 0.02 | 0.00 | 77 | 1011.7 |
| 20260508011125 | 58 | 292 | 0.0 | 0.0 | 0.02 | 0.02 | 0.00 | 77 | 1011.7 |
| 20260508010625 | 58 | 292 | 0.0 | 0.0 | 0.02 | 0.02 | 0.00 | 77 | 1011.8 |
| 20260508010124 | 58 | 292 | 0.0 | 0.0 | 0.00 | 0.00 | 0.00 | 77 | 1011.8 |
| 20260508005624 | 58 | 292 | 0.0 | 0.0 | 0.00 | 0.00 | 0.00 | 77 | 1011.9 |
| 20260508005124 | 58 | 292 | 0.0 | 0.0 | 0.00 | 0.00 | 0.00 | 77 | 1012.0 |
| 20260508004623 | 58 | 292 | 0.0 | 1.0 | 0.00 | 0.00 | 0.00 | 77 | 1011.8 |
| 20260508004123 | 58 | 292 | 0.0 | 0.0 | 0.00 | 0.00 | 0.00 | 77 | 1011.9 |
| 20260508003623 | 58 | 292 | 0.0 | 0.0 | 0.00 | 0.00 | 0.00 | 76 | 1011.8 |
| 20260508003123 | 58 | 292 | 0.0 | 2.0 | 0.00 | 0.00 | 0.00 | 75 | 1011.9 |
| 20260508002622 | 58 | 292 | 0.0 | 1.0 | 0.00 | 0.00 | 0.00 | 75 | 1011.9 |
| 20260508002122 | 59 | 292 | 0.0 | 2.0 | 0.00 | 0.00 | 0.00 | 75 | 1011.9 |
| 20260508001622 | 59 | 315 | 0.0 | 4.0 | 0.00 | 0.00 | 0.00 | 73 | 1011.8 |
| 20260508001121 | 59 | 292 | 0.0 | 1.0 | 0.00 | 0.00 | 0.00 | 72 | 1011.8 |
| 20260508000621 | 59 | 292 | 0.0 | 0.0 | 0.00 | 0.00 | 0.00 | 72 | 1011.8 |
| 20260508000121 | 60 | 292 | 0.0 | 4.0 | 0.00 | 0.00 | 0.00 | 71 | 1011.7 |
| 20260507235621 | 60 | 292 | 0.0 | 3.0 | 0.00 | 0.00 | 0.00 | 70 | 1011.9 |
| 20260507235120 | 60 | 292 | 2.0 | 3.0 | 0.00 | 0.00 | 0.00 | 69 | 1011.7 |
| 20260507234620 | 61 | 292 | 1.0 | 3.0 | 0.00 | 0.00 | 0.00 | 68 | 1011.8 |
| 20260507234120 | 61 | 292 | 1.0 | 3.0 | 0.00 | 0.00 | 0.00 | 67 | 1011.8 |
| 20260507233619 | 61 | 292 | 2.0 | 5.0 | 0.00 | 0.00 | 0.00 | 66 | 1011.8 |
| 20260507233119 | 62 | 292 | 2.0 | 4.0 | 0.00 | 0.00 | 0.00 | 65 | 1011.8 |
| 20260507232619 | 62 | 292 | 2.0 | 8.0 | 0.00 | 0.00 | 0.00 | 64 | 1011.8 |
| 20260507232118 | 62 | 247 | 7.0 | 7.0 | 0.00 | 0.00 | 0.00 | 63 | 1011.8 |
| 20260507231618 | 63 | 315 | 2.0 | 9.0 | 0.00 | 0.00 | 0.00 | 62 | 1011.9 |
| 20260507231118 | 63 | 292 | 4.0 | 6.0 | 0.00 | 0.00 | 0.00 | 61 | 1011.8 |
| 20260507230618 | 63 | 292 | 4.0 | 5.0 | 0.00 | 0.00 | 0.00 | 60 | 1011.7 |
| 20260507230117 | 63 | 292 | 4.0 | 6.0 | 0.00 | 0.00 | 0.00 | 60 | 1011.7 |
| 20260507225617 | 63 | 292 | 2.0 | 4.0 | 0.00 | 0.00 | 0.00 | 60 | 1011.6 |
| 20260507225117 | 64 | 292 | 0.0 | 4.0 | 0.00 | 0.00 | 0.00 | 60 | 1011.6 |
| 20260507224616 | 64 | 247 | 3.0 | 5.0 | 0.00 | 0.00 | 0.00 | 60 | 1011.5 |
| 20260507224116 | 64 | 292 | 3.0 | 6.0 | 0.00 | 0.00 | 0.00 | 60 | 1011.6 |
| 20260507223616 | 64 | 292 | 2.0 | 5.0 | 0.00 | 0.00 | 0.00 | 60 | 1011.6 |
| 20260507223116 | 64 | 247 | 4.0 | 8.0 | 0.00 | 0.00 | 0.00 | 59 | 1011.6 |
| 20260507222615 | 64 | 247 | 5.0 | 6.0 | 0.00 | 0.00 | 0.00 | 60 | 1011.7 |
| 20260507222115 | 64 | 202 | 1.0 | 9.0 | 0.00 | 0.00 | 0.00 | 60 | 1011.7 |
| 20260507221615 | 64 | 247 | 6.0 | 18.0 | 0.00 | 0.00 | 0.00 | 60 | 1011.7 |
| 20260507221114 | 64 | 225 | 13.0 | 17.0 | 0.00 | 0.00 | 0.00 | 60 | 1011.7 |
| 20260507220614 | 64 | 202 | 5.0 | 11.0 | 0.00 | 0.00 | 0.00 | 60 | 1011.7 |
| 20260507220114 | 65 | 202 | 6.0 | 10.0 | 0.00 | 0.00 | 0.00 | 60 | 1011.6 |
| 20260507215613 | 65 | 225 | 6.0 | 11.0 | 0.00 | 0.00 | 0.00 | 61 | 1011.6 |
| 20260507215113 | 65 | 225 | 9.0 | 13.0 | 0.00 | 0.00 | 0.00 | 61 | 1011.6 |
| 20260507214613 | 65 | 247 | 8.0 | 9.0 | 0.00 | 0.00 | 0.00 | 60 | 1011.6 |
| 20260507214113 | 65 | 202 | 7.0 | 10.0 | 0.00 | 0.00 | 0.00 | 60 | 1011.5 |
| 20260507213612 | 65 | 202 | 0.0 | 12.0 | 0.00 | 0.00 | 0.00 | 60 | 1011.5 |
| 20260507213112 | 65 | 225 | 7.0 | 14.0 | 0.00 | 0.00 | 0.00 | 59 | 1011.5 |
| 20260507212612 | 65 | 202 | 5.0 | 8.0 | 0.00 | 0.00 | 0.00 | 59 | 1011.6 |
| 20260507212111 | 65 | 202 | 0.0 | 4.0 | 0.00 | 0.00 | 0.00 | 59 | 1011.5 |
| 20260507211611 | 65 | 225 | 0.0 | 6.0 | 0.00 | 0.00 | 0.00 | 59 | 1011.6 |
| 20260507211111 | 65 | 202 | 4.0 | 5.0 | 0.00 | 0.00 | 0.00 | 59 | 1011.6 |
| 20260507210611 | 65 | 202 | 2.0 | 4.0 | 0.00 | 0.00 | 0.00 | 58 | 1011.4 |
| 20260507210110 | 65 | 225 | 0.0 | 4.0 | 0.00 | 0.00 | 0.00 | 59 | 1011.4 |
| 20260507205610 | 65 | 225 | 2.0 | 4.0 | 0.00 | 0.00 | 0.00 | 58 | 1011.3 |
| 20260507205110 | 65 | 225 | 0.0 | 6.0 | 0.00 | 0.00 | 0.00 | 58 | 1011.3 |
| 20260507204609 | 65 | 225 | 4.0 | 6.0 | 0.00 | 0.00 | 0.00 | 58 | 1011.3 |
| 20260507204109 | 66 | 225 | 2.0 | 6.0 | 0.00 | 0.00 | 0.00 | 57 | 1011.3 |
| 20260507203609 | 66 | 225 | 0.0 | 4.0 | 0.00 | 0.00 | 0.00 | 57 | 1011.2 |
| 20260507203108 | 66 | 225 | 2.0 | 2.0 | 0.00 | 0.00 | 0.00 | 56 | 1011.2 |
| 20260507202608 | 66 | 225 | 0.0 | 2.0 | 0.00 | 0.00 | 0.00 | 56 | 1011.2 |
| 20260507202108 | 66 | 225 | 2.0 | 2.0 | 0.00 | 0.00 | 0.00 | 56 | 1011.2 |
| 20260507201608 | 66 | 225 | 0.0 | 0.0 | 0.00 | 0.00 | 0.00 | 56 | 1011.3 |
| 20260507201107 | 66 | 225 | 0.0 | 1.0 | 0.00 | 0.00 | 0.00 | 56 | 1011.2 |
| 20260507200607 | 66 | 225 | 1.0 | 1.0 | 0.00 | 0.00 | 0.00 | 56 | 1011.2 |
| 20260507200107 | 66 | 225 | 0.0 | 0.0 | 0.00 | 0.00 | 0.00 | 56 | 1011.1 |
| 20260507195606 | 66 | 225 | 0.0 | 0.0 | 0.00 | 0.00 | 0.00 | 55 | 1011.1 |
| 20260507195106 | 66 | 225 | 0.0 | 1.0 | 0.00 | 0.00 | 0.00 | 55 | 1011.1 |
| 20260507194606 | 66 | 225 | 0.0 | 0.0 | 0.00 | 0.00 | 0.00 | 55 | 1011.2 |
| 20260507194106 | 66 | 225 | 0.0 | 1.0 | 0.00 | 0.00 | 0.00 | 56 | 1011.2 |
| 20260507193605 | 66 | 225 | 1.0 | 1.0 | 0.00 | 0.00 | 0.00 | 56 | 1011.2 |
| 20260507193105 | 66 | 225 | 0.0 | 3.0 | 0.00 | 0.00 | 0.00 | 56 | 1011.2 |
| 20260507192605 | 66 | 225 | 0.0 | 1.0 | 0.00 | 0.00 | 0.00 | 56 | 1011.2 |
| 20260507192104 | 67 | 225 | 0.0 | 1.0 | 0.00 | 0.00 | 0.00 | 56 | 1011.2 |
| 20260507191604 | 67 | 225 | 0.0 | 4.0 | 0.00 | 0.00 | 0.00 | 57 | 1011.0 |
| 20260507191104 | 67 | 225 | 0.0 | 1.0 | 0.00 | 0.00 | 0.00 | 56 | 1010.9 |
| 20260507190608 | 67 | 225 | 1.0 | 4.0 | 0.00 | 0.00 | 0.00 | 57 | 1011.1 |
| 20260507185603 | 67 | 225 | 0.0 | 0.0 | 0.00 | 0.00 | 0.00 | 56 | 1010.9 |
| 20260507185103 | 67 | 225 | 0.0 | 0.0 | 0.00 | 0.00 | 0.00 | 56 | 1010.9 |
| 20260507184602 | 68 | 225 | 0.0 | 2.0 | 0.00 | 0.00 | 0.00 | 55 | 1010.8 |
| 20260507184102 | 68 | 225 | 0.0 | 1.0 | 0.00 | 0.00 | 0.00 | 54 | 1010.8 |
| 20260507183602 | 68 | 225 | 0.0 | 0.0 | 0.00 | 0.00 | 0.00 | 54 | 1010.7 |
| 20260507183101 | 68 | 225 | 0.0 | 1.0 | 0.00 | 0.00 | 0.00 | 53 | 1010.6 |
| 20260507182601 | 68 | 225 | 0.0 | 4.0 | 0.00 | 0.00 | 0.00 | 52 | 1010.5 |
| 20260507182101 | 69 | 225 | 1.0 | 2.0 | 0.00 | 0.00 | 0.00 | 51 | 1010.3 |
| 20260507181601 | 69 | 225 | 0.0 | 3.0 | 0.00 | 0.00 | 0.00 | 51 | 1010.2 |
| 20260507181100 | 69 | 225 | 0.0 | 8.0 | 0.00 | 0.00 | 0.00 | 51 | 1010.1 |
| 20260507180600 | 69 | 225 | 7.0 | 7.0 | 0.00 | 0.00 | 0.00 | 51 | 1010.1 |
| 20260507180100 | 69 | 202 | 0.0 | 7.0 | 0.00 | 0.00 | 0.00 | 51 | 1010.0 |
| 20260507175559 | 69 | 180 | 2.0 | 7.0 | 0.00 | 0.00 | 0.00 | 51 | 1009.9 |
| 20260507175059 | 69 | 247 | 3.0 | 8.0 | 0.00 | 0.00 | 0.00 | 51 | 1009.9 |
| 20260507174559 | 69 | 247 | 6.0 | 11.0 | 0.00 | 0.00 | 0.00 | 50 | 1009.6 |
| 20260507174059 | 69 | 247 | 2.0 | 9.0 | 0.00 | 0.00 | 0.00 | 50 | 1009.6 |
| 20260507173558 | 70 | 292 | 4.0 | 9.0 | 0.00 | 0.00 | 0.00 | 50 | 1009.5 |
| 20260507173058 | 70 | 202 | 3.0 | 8.0 | 0.00 | 0.00 | 0.00 | 50 | 1009.6 |
| 20260507172558 | 70 | 225 | 3.0 | 10.0 | 0.00 | 0.00 | 0.00 | 49 | 1009.5 |
| 20260507172057 | 70 | 225 | 8.0 | 10.0 | 0.00 | 0.00 | 0.00 | 49 | 1009.6 |
| 20260507171557 | 71 | 202 | 5.0 | 8.0 | 0.00 | 0.00 | 0.00 | 49 | 1009.6 |
| 20260507171057 | 71 | 225 | 6.0 | 9.0 | 0.00 | 0.00 | 0.00 | 48 | 1009.5 |
| 20260507170557 | 71 | 247 | 9.0 | 9.0 | 0.00 | 0.00 | 0.00 | 48 | 1009.5 |
| 20260507170056 | 71 | 247 | 4.0 | 12.0 | 0.00 | 0.00 | 0.00 | 48 | 1009.5 |
| 20260507165556 | 72 | 225 | 10.0 | 14.0 | 0.00 | 0.00 | 0.00 | 47 | 1009.5 |
| 20260507165056 | 72 | 247 | 7.0 | 17.0 | 0.00 | 0.00 | 0.00 | 47 | 1009.5 |
| 20260507164555 | 73 | 292 | 6.0 | 15.0 | 0.00 | 0.00 | 0.00 | 47 | 1009.5 |
| 20260507164055 | 73 | 247 | 14.0 | 20.0 | 0.00 | 0.00 | 0.00 | 46 | 1009.5 |
| 20260507163555 | 74 | 202 | 13.0 | 19.0 | 0.00 | 0.00 | 0.00 | 46 | 1009.6 |
| 20260507163054 | 74 | 292 | 1.0 | 16.0 | 0.00 | 0.00 | 0.00 | 45 | 1009.6 |
| 20260507162554 | 74 | 225 | 10.0 | 20.0 | 0.00 | 0.00 | 0.00 | 45 | 1009.6 |
| 20260507162054 | 75 | 202 | 7.0 | 14.0 | 0.00 | 0.00 | 0.00 | 45 | 1009.6 |
| 20260507161554 | 74 | 247 | 8.0 | 15.0 | 0.00 | 0.00 | 0.00 | 44 | 1009.5 |
| 20260507161053 | 74 | 225 | 11.0 | 13.0 | 0.00 | 0.00 | 0.00 | 44 | 1009.6 |
| 20260507160553 | 74 | 225 | 7.0 | 16.0 | 0.00 | 0.00 | 0.00 | 44 | 1009.7 |
| 20260507160053 | 74 | 247 | 3.0 | 17.0 | 0.00 | 0.00 | 0.00 | 44 | 1009.6 |
| 20260507155552 | 75 | 225 | 14.0 | 18.0 | 0.00 | 0.00 | 0.00 | 44 | 1009.6 |
| 20260507155052 | 75 | 247 | 8.0 | 19.0 | 0.00 | 0.00 | 0.00 | 44 | 1009.6 |
| 20260507154552 | 75 | 180 | 13.0 | 19.0 | 0.00 | 0.00 | 0.00 | 43 | 1009.6 |
| 20260507154051 | 76 | 225 | 10.0 | 19.0 | 0.00 | 0.00 | 0.00 | 43 | 1009.6 |
| 20260507153551 | 76 | 225 | 9.0 | 19.0 | 0.00 | 0.00 | 0.00 | 42 | 1009.7 |
| 20260507153051 | 76 | 202 | 8.0 | 17.0 | 0.00 | 0.00 | 0.00 | 42 | 1009.7 |
| 20260507152551 | 77 | 247 | 12.0 | 19.0 | 0.00 | 0.00 | 0.00 | 41 | 1009.6 |
| 20260507152050 | 77 | 180 | 3.0 | 15.0 | 0.00 | 0.00 | 0.00 | 41 | 1009.6 |
| 20260507151550 | 78 | 225 | 9.0 | 20.0 | 0.00 | 0.00 | 0.00 | 41 | 1009.6 |
| 20260507151050 | 79 | 202 | 5.0 | 7.0 | 0.00 | 0.00 | 0.00 | 41 | 1009.6 |
| 20260507150549 | 80 | 45 | 0.0 | 2.0 | 0.00 | 0.00 | 0.00 | 41 | 1009.6 |
| 20260507150049 | 80 | 225 | 0.0 | 7.0 | 0.00 | 0.00 | 0.00 | 41 | 1009.6 |
| 20260507145549 | 80 | 180 | 3.0 | 10.0 | 0.00 | 0.00 | 0.00 | 41 | 1009.6 |
| 20260507145049 | 80 | 112 | 0.0 | 8.0 | 0.00 | 0.00 | 0.00 | 40 | 1009.6 |
| 20260507144548 | 80 | 157 | 3.0 | 13.0 | 0.00 | 0.00 | 0.00 | 39 | 1009.6 |
| 20260507144048 | 80 | 67 | 3.0 | 11.0 | 0.00 | 0.00 | 0.00 | 39 | 1009.6 |
| 20260507143548 | 79 | 157 | 1.0 | 7.0 | 0.00 | 0.00 | 0.00 | 39 | 1009.6 |
| 20260507143047 | 80 | 157 | 3.0 | 14.0 | 0.00 | 0.00 | 0.00 | 38 | 1009.6 |
| 20260507142547 | 80 | 225 | 7.0 | 19.0 | 0.00 | 0.00 | 0.00 | 38 | 1009.6 |
| 20260507142047 | 80 | 225 | 4.0 | 14.0 | 0.00 | 0.00 | 0.00 | 38 | 1009.5 |
| 20260507141547 | 79 | 202 | 2.0 | 17.0 | 0.00 | 0.00 | 0.00 | 38 | 1009.6 |
| 20260507141046 | 80 | 225 | 6.0 | 23.0 | 0.00 | 0.00 | 0.00 | 37 | 1009.6 |
| 20260507140546 | 80 | 247 | 7.0 | 21.0 | 0.00 | 0.00 | 0.00 | 37 | 1009.6 |
| 20260507140046 | 80 | 225 | 8.0 | 24.0 | 0.00 | 0.00 | 0.00 | 37 | 1009.6 |
| 20260507135545 | 80 | 202 | 15.0 | 24.0 | 0.00 | 0.00 | 0.00 | 37 | 1009.6 |
| 20260507135045 | 79 | 202 | 7.0 | 8.0 | 0.00 | 0.00 | 0.00 | 40 | 1009.6 |
| 20260507134545 | 79 | 157 | 0.0 | 6.0 | 0.00 | 0.00 | 0.00 | 40 | 1009.6 |
| 20260507134044 | 79 | 180 | 2.0 | 12.0 | 0.00 | 0.00 | 0.00 | 40 | 1009.6 |
| 20260507133544 | 79 | 157 | 4.0 | 7.0 | 0.00 | 0.00 | 0.00 | 40 | 1009.6 |
| 20260507133044 | 79 | 157 | 3.0 | 12.0 | 0.00 | 0.00 | 0.00 | 39 | 1009.5 |
| 20260507132543 | 80 | 67 | 3.0 | 11.0 | 0.00 | 0.00 | 0.00 | 39 | 1009.5 |
| 20260507132043 | 81 | 45 | 4.0 | 15.0 | 0.00 | 0.00 | 0.00 | 38 | 1009.5 |
| 20260507131543 | 81 | 157 | 3.0 | 14.0 | 0.00 | 0.00 | 0.00 | 37 | 1009.5 |
| 20260507131043 | 82 | 90 | 1.0 | 9.0 | 0.00 | 0.00 | 0.00 | 36 | 1009.5 |
| 20260507130542 | 82 | 157 | 3.0 | 6.0 | 0.00 | 0.00 | 0.00 | 36 | 1009.5 |
| 20260507130042 | 82 | 135 | 4.0 | 7.0 | 0.00 | 0.00 | 0.00 | 35 | 1009.5 |
| 20260507125542 | 82 | 157 | 2.0 | 13.0 | 0.00 | 0.00 | 0.00 | 35 | 1009.5 |
| 20260507125041 | 82 | 157 | 4.0 | 10.0 | 0.00 | 0.00 | 0.00 | 35 | 1009.5 |
| 20260507124541 | 82 | 135 | 0.0 | 17.0 | 0.00 | 0.00 | 0.00 | 35 | 1009.5 |
| 20260507124041 | 82 | 225 | 8.0 | 20.0 | 0.00 | 0.00 | 0.00 | 35 | 1009.4 |
| 20260507123541 | 83 | 202 | 3.0 | 14.0 | 0.00 | 0.00 | 0.00 | 35 | 1009.5 |
| 20260507123040 | 83 | 225 | 10.0 | 15.0 | 0.00 | 0.00 | 0.00 | 35 | 1009.5 |
| 20260507122540 | 83 | 202 | 0.0 | 17.0 | 0.00 | 0.00 | 0.00 | 34 | 1009.4 |
| 20260507122040 | 84 | 225 | 4.0 | 20.0 | 0.00 | 0.00 | 0.00 | 34 | 1009.5 |
| 20260507121539 | 84 | 202 | 10.0 | 23.0 | 0.00 | 0.00 | 0.00 | 33 | 1009.4 |
| 20260507121039 | 85 | 292 | 7.0 | 12.0 | 0.00 | 0.00 | 0.00 | 33 | 1009.5 |
| 20260507120539 | 85 | 247 | 0.0 | 11.0 | 0.00 | 0.00 | 0.00 | 33 | 1009.5 |
| 20260507120039 | 84 | 157 | 3.0 | 10.0 | 0.00 | 0.00 | 0.00 | 33 | 1009.4 |
| 20260507115538 | 83 | 180 | 0.0 | 9.0 | 0.00 | 0.00 | 0.00 | 33 | 1009.4 |
| 20260507115038 | 83 | 90 | 0.0 | 8.0 | 0.00 | 0.00 | 0.00 | 32 | 1009.4 |
| 20260507114538 | 84 | 45 | 0.0 | 10.0 | 0.00 | 0.00 | 0.00 | 30 | 1009.4 |
| 20260507114037 | 85 | 67 | 3.0 | 8.0 | 0.00 | 0.00 | 0.00 | 32 | 1009.4 |
| 20260507113537 | 84 | 135 | 8.0 | 20.0 | 0.00 | 0.00 | 0.00 | 33 | 1009.4 |
| 20260507113037 | 84 | 45 | 0.0 | 5.0 | 0.00 | 0.00 | 0.00 | 33 | 1009.4 |
| 20260507112537 | 85 | 67 | 2.0 | 6.0 | 0.00 | 0.00 | 0.00 | 33 | 1009.4 |
| 20260507112036 | 84 | 292 | 0.0 | 2.0 | 0.00 | 0.00 | 0.00 | 34 | 1009.4 |
| 20260507111536 | 83 | 292 | 0.0 | 6.0 | 0.00 | 0.00 | 0.00 | 35 | 1009.4 |
| 20260507111036 | 82 | 292 | 6.0 | 11.0 | 0.00 | 0.00 | 0.00 | 35 | 1009.3 |
| 20260507110535 | 81 | 315 | 0.0 | 3.0 | 0.00 | 0.00 | 0.00 | 35 | 1009.3 |
| 20260507110035 | 80 | 315 | 2.0 | 6.0 | 0.00 | 0.00 | 0.00 | 35 | 1009.3 |
| 20260507105535 | 80 | 337 | 6.0 | 6.0 | 0.00 | 0.00 | 0.00 | 34 | 1009.3 |
| 20260507105034 | 81 | 22 | 2.0 | 5.0 | 0.00 | 0.00 | 0.00 | 34 | 1009.3 |
| 20260507104534 | 81 | 67 | 0.0 | 6.0 | 0.00 | 0.00 | 0.00 | 33 | 1009.4 |
| 20260507104034 | 83 | 22 | 2.0 | 6.0 | 0.00 | 0.00 | 0.00 | 32 | 1009.4 |
| 20260507103534 | 83 | 337 | 0.0 | 3.0 | 0.00 | 0.00 | 0.00 | 35 | 1009.6 |
| 20260507103033 | 82 | 292 | 0.0 | 3.0 | 0.00 | 0.00 | 0.00 | 36 | 1009.7 |
| 20260507102533 | 81 | 292 | 0.0 | 4.0 | 0.00 | 0.00 | 0.00 | 36 | 1009.9 |
| 20260507102033 | 78 | 180 | 0.0 | 6.0 | 0.00 | 0.00 | 0.00 | 36 | 1010.1 |
| 20260507101532 | 78 | 0 | 2.0 | 6.0 | 0.00 | 0.00 | 0.00 | 35 | 1010.4 |
| 20260507101032 | 78 | 22 | 3.0 | 4.0 | 0.00 | 0.00 | 0.00 | 36 | 1010.4 |
| 20260507100532 | 78 | 90 | 3.0 | 8.0 | 0.00 | 0.00 | 0.00 | 35 | 1010.4 |
| 20260507100031 | 77 | 22 | 0.0 | 4.0 | 0.00 | 0.00 | 0.00 | 36 | 1010.5 |
| 20260507095531 | 78 | 22 | 4.0 | 7.0 | 0.00 | 0.00 | 0.00 | 35 | 1010.6 |
| 20260507095031 | 77 | 22 | 0.0 | 3.0 | 0.00 | 0.00 | 0.00 | 37 | 1010.5 |
| 20260507094531 | 77 | 22 | 2.0 | 4.0 | 0.00 | 0.00 | 0.00 | 36 | 1010.7 |
| 20260507094030 | 77 | 22 | 2.0 | 5.0 | 0.00 | 0.00 | 0.00 | 35 | 1010.7 |
| 20260507093530 | 77 | 0 | 0.0 | 4.0 | 0.00 | 0.00 | 0.00 | 37 | 1010.7 |
| 20260507093030 | 77 | 22 | 0.0 | 3.0 | 0.00 | 0.00 | 0.00 | 38 | 1010.8 |
| 20260507092529 | 76 | 67 | 3.0 | 5.0 | 0.00 | 0.00 | 0.00 | 39 | 1010.9 |
| 20260507092029 | 76 | 45 | 1.0 | 4.0 | 0.00 | 0.00 | 0.00 | 39 | 1011.1 |
| 20260507091529 | 76 | 45 | 3.0 | 3.0 | 0.00 | 0.00 | 0.00 | 39 | 1011.2 |
| 20260507091029 | 75 | 0 | 3.0 | 3.0 | 0.00 | 0.00 | 0.00 | 41 | 1011.1 |
| 20260507090528 | 75 | 22 | 0.0 | 4.0 | 0.00 | 0.00 | 0.00 | 43 | 1011.2 |
| 20260507090028 | 74 | 22 | 0.0 | 2.0 | 0.00 | 0.00 | 0.00 | 45 | 1011.1 |
| 20260507085528 | 73 | 22 | 2.0 | 3.0 | 0.00 | 0.00 | 0.00 | 46 | 1011.2 |
| 20260507085027 | 72 | 67 | 0.0 | 3.0 | 0.00 | 0.00 | 0.00 | 49 | 1011.2 |
| 20260507084529 | 72 | 45 | 1.0 | 6.0 | 0.00 | 0.00 | 0.00 | 50 | 1011.4 |
| 20260507084027 | 71 | 67 | 0.0 | 4.0 | 0.00 | 0.00 | 0.00 | 52 | 1011.4 |
| 20260507083527 | 71 | 67 | 2.0 | 6.0 | 0.00 | 0.00 | 0.00 | 52 | 1011.4 |
| 20260507083026 | 70 | 45 | 3.0 | 6.0 | 0.00 | 0.00 | 0.00 | 54 | 1011.3 |
| 20260507082526 | 69 | 90 | 1.0 | 6.0 | 0.00 | 0.00 | 0.00 | 54 | 1011.4 |
| 20260507082026 | 69 | 22 | 4.0 | 7.0 | 0.00 | 0.00 | 0.00 | 55 | 1011.5 |
| 20260507081525 | 68 | 67 | 2.0 | 6.0 | 0.00 | 0.00 | 0.00 | 55 | 1011.4 |
| 20260507081025 | 68 | 67 | 3.0 | 8.0 | 0.00 | 0.00 | 0.00 | 55 | 1011.5 |
| 20260507080525 | 68 | 45 | 4.0 | 8.0 | 0.00 | 0.00 | 0.00 | 55 | 1011.5 |
| 20260507080024 | 68 | 67 | 4.0 | 8.0 | 0.00 | 0.00 | 0.00 | 55 | 1011.5 |
| 20260507075524 | 68 | 67 | 5.0 | 9.0 | 0.00 | 0.00 | 0.00 | 54 | 1011.6 |
| 20260507075024 | 68 | 67 | 9.0 | 9.0 | 0.00 | 0.00 | 0.00 | 55 | 1011.6 |
| 20260507074524 | 68 | 67 | 8.0 | 9.0 | 0.00 | 0.00 | 0.00 | 55 | 1011.7 |
| 20260507074023 | 67 | 67 | 4.0 | 7.0 | 0.00 | 0.00 | 0.00 | 56 | 1011.7 |
| 20260507073523 | 67 | 45 | 6.0 | 8.0 | 0.00 | 0.00 | 0.00 | 57 | 1011.7 |
| 20260507073023 | 66 | 22 | 5.0 | 6.0 | 0.00 | 0.00 | 0.00 | 58 | 1011.8 |
| 20260507072522 | 66 | 22 | 4.0 | 7.0 | 0.00 | 0.00 | 0.00 | 59 | 1011.9 |
| 20260507072022 | 66 | 45 | 5.0 | 7.0 | 0.00 | 0.00 | 0.00 | 58 | 1011.8 |
| 20260507071522 | 66 | 22 | 6.0 | 6.0 | 0.00 | 0.00 | 0.00 | 57 | 1011.9 |
| 20260507071022 | 66 | 67 | 5.0 | 6.0 | 0.00 | 0.00 | 0.00 | 57 | 1011.9 |
| 20260507070521 | 66 | 45 | 4.0 | 6.0 | 0.00 | 0.00 | 0.00 | 57 | 1012.0 |
| 20260507070021 | 66 | 67 | 5.0 | 5.0 | 0.00 | 0.00 | 0.00 | 57 | 1012.0 |
| 20260507065521 | 66 | 67 | 3.0 | 5.0 | 0.00 | 0.00 | 0.00 | 56 | 1011.9 |
| 20260507065020 | 66 | 45 | 0.0 | 6.0 | 0.00 | 0.00 | 0.00 | 56 | 1011.9 |
| 20260507064520 | 66 | 45 | 2.0 | 6.0 | 0.00 | 0.00 | 0.00 | 58 | 1011.9 |
| 20260507064020 | 66 | 22 | 4.0 | 7.0 | 0.00 | 0.00 | 0.00 | 57 | 1011.9 |
| 20260507063520 | 66 | 67 | 6.0 | 6.0 | 0.00 | 0.00 | 0.00 | 58 | 1012.0 |
| 20260507063019 | 65 | 22 | 2.0 | 6.0 | 0.00 | 0.00 | 0.00 | 58 | 1011.9 |
| 20260507062519 | 66 | 67 | 2.0 | 6.0 | 0.00 | 0.00 | 0.00 | 58 | 1012.0 |
| 20260507062019 | 65 | 67 | 3.0 | 6.0 | 0.00 | 0.00 | 0.00 | 58 | 1012.0 |
| 20260507061518 | 65 | 45 | 4.0 | 6.0 | 0.00 | 0.00 | 0.00 | 57 | 1012.1 |
| 20260507061018 | 65 | 45 | 1.0 | 5.0 | 0.00 | 0.00 | 0.00 | 57 | 1012.1 |
| 20260507060518 | 65 | 45 | 4.0 | 5.0 | 0.00 | 0.00 | 0.00 | 57 | 1012.1 |
| 20260507060017 | 66 | 45 | 4.0 | 5.0 | 0.00 | 0.00 | 0.00 | 57 | 1012.2 |
| 20260507055517 | 66 | 22 | 4.0 | 4.0 | 0.00 | 0.00 | 0.00 | 58 | 1012.2 |
| 20260507055017 | 66 | 22 | 0.0 | 2.0 | 0.00 | 0.00 | 0.00 | 59 | 1012.2 |
| 20260507054517 | 65 | 45 | 0.0 | 2.0 | 0.00 | 0.00 | 0.00 | 61 | 1012.2 |
| 20260507054016 | 63 | 45 | 0.0 | 0.0 | 0.00 | 0.00 | 0.00 | 63 | 1012.2 |
| 20260507053516 | 62 | 45 | 0.0 | 4.0 | 0.00 | 0.00 | 0.00 | 63 | 1012.2 |
| 20260507053016 | 62 | 67 | 0.0 | 2.0 | 0.00 | 0.00 | 0.00 | 63 | 1012.2 |
| 20260507052515 | 60 | 67 | 2.0 | 5.0 | 0.00 | 0.00 | 0.00 | 64 | 1012.2 |
| 20260507052015 | 60 | 67 | 2.0 | 4.0 | 0.00 | 0.00 | 0.00 | 65 | 1012.1 |
| 20260507051515 | 59 | 22 | 2.0 | 4.0 | 0.00 | 0.00 | 0.00 | 66 | 1012.1 |
| 20260507051015 | 58 | 67 | 2.0 | 4.0 | 0.00 | 0.00 | 0.00 | 67 | 1012.2 |
| 20260507050514 | 58 | 67 | 2.0 | 4.0 | 0.00 | 0.00 | 0.00 | 68 | 1012.2 |
| 20260507050014 | 57 | 67 | 2.0 | 2.0 | 0.00 | 0.00 | 0.00 | 69 | 1012.3 |
| 20260507045514 | 56 | 67 | 0.0 | 3.0 | 0.00 | 0.00 | 0.00 | 70 | 1012.3 |
| 20260507045013 | 55 | 67 | 3.0 | 3.0 | 0.00 | 0.00 | 0.00 | 70 | 1012.3 |
| 20260507044513 | 55 | 67 | 3.0 | 6.0 | 0.00 | 0.00 | 0.00 | 70 | 1012.2 |
| 20260507044013 | 55 | 45 | 4.0 | 7.0 | 0.00 | 0.00 | 0.00 | 70 | 1012.2 |
| 20260507043512 | 55 | 67 | 2.0 | 5.0 | 0.00 | 0.00 | 0.00 | 71 | 1012.3 |
| 20260507043012 | 54 | 45 | 4.0 | 4.0 | 0.00 | 0.00 | 0.00 | 71 | 1012.2 |
| 20260507042512 | 54 | 45 | 1.0 | 5.0 | 0.00 | 0.00 | 0.00 | 70 | 1012.2 |
| 20260507042012 | 55 | 157 | 1.0 | 2.0 | 0.00 | 0.00 | 0.00 | 69 | 1012.3 |
| 20260507041511 | 55 | 180 | 0.0 | 0.0 | 0.00 | 0.00 | 0.00 | 68 | 1012.2 |
| 20260507041011 | 55 | 180 | 0.0 | 0.0 | 0.00 | 0.00 | 0.00 | 68 | 1012.2 |
| 20260507040511 | 55 | 180 | 0.0 | 0.0 | 0.00 | 0.00 | 0.00 | 68 | 1012.2 |
| 20260507040011 | 55 | 180 | 0.0 | 1.0 | 0.00 | 0.00 | 0.00 | 68 | 1012.2 |
| 20260507035510 | 55 | 180 | 0.0 | 0.0 | 0.00 | 0.00 | 0.00 | 69 | 1012.1 |
| 20260507035010 | 55 | 180 | 0.0 | 0.0 | 0.00 | 0.00 | 0.00 | 69 | 1012.0 |
| 20260507034510 | 55 | 180 | 0.0 | 0.0 | 0.00 | 0.00 | 0.00 | 70 | 1012.0 |
| 20260507034009 | 55 | 180 | 0.0 | 0.0 | 0.00 | 0.00 | 0.00 | 71 | 1012.0 |
| 20260507033509 | 54 | 180 | 0.0 | 0.0 | 0.00 | 0.00 | 0.00 | 72 | 1011.9 |
| 20260507033009 | 52 | 180 | 0.0 | 0.0 | 0.00 | 0.00 | 0.00 | 73 | 1011.9 |
| 20260507032508 | 51 | 180 | 0.0 | 0.0 | 0.00 | 0.00 | 0.00 | 73 | 1011.7 |
| 20260507032008 | 51 | 180 | 0.0 | 0.0 | 0.00 | 0.00 | 0.00 | 73 | 1011.7 |
| 20260507031508 | 50 | 180 | 0.0 | 0.0 | 0.00 | 0.00 | 0.00 | 73 | 1011.6 |
| 20260507031008 | 50 | 180 | 0.0 | 1.0 | 0.00 | 0.00 | 0.00 | 73 | 1011.6 |
| 20260507030507 | 50 | 180 | 0.0 | 0.0 | 0.00 | 0.00 | 0.00 | 73 | 1011.7 |
| 20260507030007 | 50 | 180 | 0.0 | 0.0 | 0.00 | 0.00 | 0.00 | 73 | 1011.7 |
| 20260507025507 | 50 | 180 | 0.0 | 0.0 | 0.00 | 0.00 | 0.00 | 73 | 1011.6 |
| 20260507025006 | 50 | 180 | 0.0 | 0.0 | 0.00 | 0.00 | 0.00 | 73 | 1011.5 |
| 20260507024506 | 51 | 180 | 0.0 | 0.0 | 0.00 | 0.00 | 0.00 | 73 | 1011.6 |
| 20260507024006 | 51 | 180 | 0.0 | 0.0 | 0.00 | 0.00 | 0.00 | 73 | 1011.5 |